Location: Meanaryar
(48.4161°N, 4.7315°W)
Time: 06:28:11
(UTC+00:00)

Cosmos 1125 Rocket - Pass Details

Date: 18 September 2020
Orbit: 757 x 780 km, 74.0° (Epoch: 23 October)

Event Time Altitude Azimuth Distance (km) Brightness Sun altitude
Rises 20:37:43 0° 196° (SSW) 3,244 6.6 -21.9°
Reaches altitude 10° 20:40:05 10° 195° (SSW) 2,323 5.8 -22.3°
Maximum altitude 20:45:22 78° 111° (ESE) 803 3.4 -23.0°
Drops below altitude 10° 20:50:42 10° 25° (NNE) 2,344 6.1 -23.8°
Sets 20:53:05 0° 25° (NNE) 3,276 6.9 -24.1°
